Weather in Krasnopavlivka

Ukraine / Kharkiv Region     49°08′14″N   36°19′28″E
temp.,
°C
wind,
m/s
gust,
m/s
humid.,
%
clouds,
%
prec.,
mm/h
press.,
hPa
HPBL,
m
20 may, fri
fri2000:00+12wnw3867100 0.0 1017188
03:00+9nw47857 0.0 1017114
06:00+8wnw4108343 0.0 1017229
09:00+15nw68605 0.0 1018780
12:00+18nw710494 0.0 10171860
15:00+17nnw585599 0.0 1016785
18:00+18n466085 0.0 1016727
21:00+14w3572100 0.1 1016116
21 may, sat
sat2100:00+12sw0195100 0.9 101514
03:00+12ssw3597100 1.7 1013152
06:00+12ssw51191100 0.1 1010349
09:00+17wsw71176100 0.1 1008528
12:00+19w71176100 0.1 1007961
15:00+22w71068100 1.4 10061434
18:00+16w51191100 4.3 1006474
21:00+16sw5149387 4.9 1004603
22 may, sun
sun2200:00+17w81591100 0.3 1002824
03:00+14w81389100 0.4 1002925
06:00+12wnw8138599 0.1 1002889
09:00+14wnw7107074 0.1 10021243
12:00+16w8116299 0.1 10011614
15:00+14w597456 1.1 10001145
18:00+11wnw5118365 1.4 1000579
21:00+10nw598999 1.6 1001501
23 may, mon
mon2300:00+9nnw4891100 0.1 1002447
03:00+8nne4695100 0.6 1003434
06:00+7ne4793100 0.1 1005403
09:00+8ne5888100 0.2 1006678
12:00+10ne567593 0.1 1007999
15:00+12nne466791 0.4 1007831
18:00+13nne565966 0.4 10081548
21:00+8n4107625 0.4 1010185
24 may, tue
tue2400:00+6n347624 0.0 101249
03:00+5n34800 0.0 101364
06:00+6nnw36801 0.0 1014134
09:00+12nw45605 0.0 1014775
12:00+15nnw554699 0.1 10142233
15:00+16nnw6542100 0.1 10142242
18:00+14nnw5753100 0.0 1016765
21:00+10nnw356530 0.0 101765